Location: Quedlinburg
(51.7921°N, 11.1414°E)
Time: 06:55:41
(UTC+02:00)

BEESAT - Pass Details

Date: 15 March 2026
Orbit: 683 x 693 km, 98.4° (Epoch: 17 April)

Event Time Altitude Azimuth Distance (km) Brightness Sun altitude
Rises 01:01:15 0° 8° (N) 3,068 ? -39.8°
Reaches altitude 10° 01:03:43 10° 358° (N) 2,146 ? -39.7°
Enters shadow 01:04:23 13° 353° (N) 1,918 ? -39.7°
